Location: Altmatt
(47.1333°N, 8.7000°E)
Time: 02:54:50
(UTC+00:00)

Cosmos 1606 - Pass Details

Date: 13 July 2020
Orbit: 505 x 527 km, 82.5° (Epoch: 04 August)

Event Time Altitude Azimuth Distance (km) Brightness Sun altitude
Rises 22:21:18 0° 343° (NNW) 2,673 8.0 -19.4°
Reaches altitude 10° 22:23:34 10° 334° (NNW) 1,780 6.6 -19.6°
Maximum altitude 22:27:08 35° 268° (W) 868 3.9 -19.7°
Enters shadow 22:28:15 29° 233° (SW) 992 3.9 -19.8°
